EW5195 Weather Reports


Display with metric or nautical units.
time (UTC)temp
F
wind
direction
speed
MPH
gust
MPH
rain 1hr
in
rain 24hr
in
rain mn
in
humidity
%
barometer
mb
20260904032548 79 0 0.0 0.0 0.00 0.01 0.01 92 1015.6
20260904032050 79 0 0.0 0.0 0.00 0.01 0.01 92 1015.5
20260904031556 79 0 0.0 0.0 0.00 0.01 0.01 92 1015.6
20260904031050 79 0 0.0 0.0 0.00 0.01 0.01 92 1015.7
20260904030548 79 0 0.0 0.0 0.00 0.01 0.01 92 1015.6
20260904030106 79 0 0.0 0.0 0.00 0.01 0.01 92 1015.5
20260904025554 79 0 0.0 0.0 0.00 0.01 0.01 92 1015.5
20260904025053 79 0 0.0 0.0 0.00 0.01 0.01 92 1015.4
20260904024608 79 0 0.0 0.0 0.00 0.01 0.01 92 1015.6
20260904024051 79 0 0.0 0.0 0.00 0.01 0.01 92 1015.5
20260904023551 79 0 0.0 0.0 0.00 0.01 0.01 92 1015.4
20260904023102 79 0 0.0 0.0 0.00 0.01 0.01 92 1015.4
20260904022551 79 0 0.0 0.0 0.00 0.01 0.01 92 1015.4
20260904022047 79 0 0.0 0.0 0.00 0.01 0.01 92 1015.5
20260904021606 79 0 0.0 0.0 0.00 0.01 0.01 92 1015.6
20260904021115 79 0 0.0 0.0 0.00 0.01 0.01 92 1015.6
20260904020552 79 0 0.0 0.0 0.00 0.01 0.01 92 1015.8
20260904020109 80 0 0.0 0.0 0.00 0.01 0.01 92 1015.8
20260904015548 80 0 0.0 0.0 0.00 0.01 0.01 92 1015.9
20260904015048 80 0 0.0 0.0 0.00 0.01 0.01 93 1015.8
20260904014606 80 0 0.0 0.0 0.00 0.01 0.01 92 1015.9
20260904014048 80 0 0.0 0.0 0.00 0.01 0.01 92 1015.9
20260904013551 80 0 0.0 0.0 0.00 0.01 0.01 92 1016.1
20260904013115 80 0 0.0 0.0 0.00 0.01 0.01 92 1016.2
20260904012548 80 0 0.0 0.0 0.00 0.01 0.01 92 1016.1
20260904012053 80 0 0.0 0.0 0.00 0.01 0.01 92 1016.1
20260904011605 80 0 0.0 0.0 0.00 0.01 0.01 92 1016.3
20260904011050 81 0 0.0 0.0 0.00 0.01 0.01 92 1016.2
20260904010551 81 0 0.0 0.0 0.00 0.01 0.01 92 1016.3
20260904010104 81 0 0.0 0.0 0.00 0.01 0.01 92 1016.4
20260904005549 81 0 0.0 0.0 0.00 0.01 0.01 92 1016.3
20260904005051 81 0 0.0 0.0 0.00 0.01 0.01 92 1016.2
20260904004603 81 0 0.0 0.0 0.00 0.01 0.01 91 1016.2
20260904004052 81 0 0.0 0.0 0.00 0.01 0.01 91 1016.0
20260904003550 81 0 0.0 0.0 0.00 0.01 0.01 91 1016.1
20260904003116 82 0 0.0 0.0 0.00 0.01 0.01 91 1016.0
20260904002550 82 0 0.0 0.0 0.00 0.01 0.01 91 1015.9
20260904002051 82 0 0.0 0.0 0.00 0.01 0.01 90 1015.9
20260904001607 82 0 0.0 0.0 0.00 0.01 0.01 90 1015.7
20260904001050 82 0 0.0 0.0 0.00 0.01 0.01 90 1015.6
20260904000551 82 0 0.0 0.0 0.00 0.01 0.01 90 1015.5
20260904000106 82 0 0.0 0.0 0.00 0.01 0.01 90 1015.4
20260903235551 83 0 0.0 0.0 0.00 0.01 0.01 90 1015.4
20260903235050 83 0 0.0 0.0 0.00 0.01 0.01 90 1015.2
20260903234604 83 0 0.0 0.0 0.00 0.01 0.01 89 1015.1
20260903234053 83 0 0.0 0.0 0.00 0.01 0.01 89 1015.1
20260903233552 83 0 0.0 0.0 0.00 0.01 0.01 89 1015.0
20260903233105 83 0 0.0 0.0 0.00 0.01 0.01 89 1015.1
20260903232552 84 0 0.0 0.0 0.00 0.01 0.01 89 1015.1
20260903232052 84 0 0.0 0.0 0.00 0.01 0.01 89 1015.1
20260903231606 84 0 0.0 0.0 0.00 0.01 0.01 89 1015.0
20260903231051 84 0 0.0 0.0 0.00 0.01 0.01 89 1015.0
20260903230549 84 0 0.0 0.0 0.00 0.01 0.01 89 1014.8
20260903230108 85 0 0.0 0.0 0.00 0.01 0.01 88 1014.9
20260903225553 85 0 0.0 0.0 0.00 0.01 0.01 88 1014.9
20260903225052 85 0 0.0 0.0 0.00 0.01 0.01 87 1015.0
20260903224606 85 0 0.0 0.0 0.00 0.01 0.01 87 1014.9
20260903224052 85 0 0.0 0.0 0.00 0.01 0.01 87 1014.8
20260903223552 85 0 0.0 0.0 0.00 0.01 0.01 86 1014.8
20260903223108 86 0 0.0 0.0 0.00 0.01 0.01 86 1014.7
20260903222551 86 0 0.0 0.0 0.00 0.01 0.01 85 1015.0
20260903222050 86 0 0.0 0.0 0.00 0.01 0.01 84 1014.9
20260903221604 87 0 0.0 0.0 0.00 0.01 0.01 84 1015.0
20260903221050 87 0 0.0 0.0 0.00 0.01 0.01 82 1014.9
20260903220550 88 0 0.0 0.0 0.00 0.01 0.01 81 1015.0
20260903220125 88 0 0.0 0.0 0.00 0.01 0.01 80 1015.0
20260903215552 89 0 0.0 0.0 0.00 0.05 0.01 79 1015.2
20260903215054 89 0 0.0 0.0 0.00 0.05 0.01 81 1014.9
20260903214604 90 0 0.0 0.0 0.00 0.05 0.01 78 1015.0
20260903214051 90 0 0.0 0.0 0.00 0.05 0.01 76 1015.0
20260903213551 90 0 0.0 0.0 0.00 0.05 0.01 75 1015.0
20260903213109 90 0 0.0 0.0 0.00 0.05 0.01 75 1015.0
20260903212550 91 0 0.0 0.0 0.00 0.05 0.01 75 1014.9
20260903212051 91 0 0.0 0.0 0.00 0.05 0.01 75 1015.0
20260903211604 92 0 0.0 0.0 0.00 0.05 0.01 74 1015.1
20260903211053 92 0 0.0 0.0 0.00 0.05 0.01 75 1015.2
20260903210552 92 0 0.0 0.0 0.00 0.05 0.01 72 1015.3
20260903210106 92 0 0.0 0.0 0.00 0.05 0.01 72 1015.2
20260903205551 92 0 0.0 0.0 0.00 0.67 0.01 70 1015.2
20260903205053 91 0 0.0 0.0 0.00 0.67 0.01 75 1015.3
20260903204603 91 0 0.0 0.0 0.00 0.67 0.01 75 1015.3
20260903204052 91 0 0.0 0.0 0.00 0.67 0.01 75 1015.3
20260903203553 91 0 0.0 0.0 0.00 0.67 0.01 76 1015.5
20260903203106 92 0 0.0 0.0 0.00 0.67 0.01 77 1015.5
20260903202552 92 0 0.0 0.0 0.00 0.67 0.01 73 1015.5
20260903202051 92 0 0.0 0.0 0.00 0.67 0.01 73 1015.8
20260903201609 92 0 0.0 0.0 0.00 0.67 0.01 77 1015.9
20260903201049 92 0 0.0 0.0 0.00 0.67 0.01 72 1015.9
20260903200550 92 0 0.0 0.0 0.00 0.67 0.01 74 1016.1
20260903200110 92 0 0.0 0.0 0.00 0.67 0.01 72 1016.1
20260903195552 92 0 0.0 0.0 0.00 0.67 0.01 73 1016.3
20260903195052 92 0 0.0 0.0 0.00 0.67 0.01 73 1016.5
20260903194604 92 0 0.0 0.0 0.00 0.67 0.01 74 1016.2
20260903194053 92 0 0.0 0.0 0.00 0.67 0.01 74 1016.4
20260903193552 92 0 0.0 0.0 0.00 0.67 0.01 74 1016.5
20260903193109 92 0 0.0 0.0 0.00 0.67 0.01 77 1016.5
20260903192551 92 0 0.0 0.0 0.00 0.67 0.01 75 1016.4
20260903192052 92 0 0.0 0.0 0.00 0.67 0.01 70 1016.6
20260903191606 93 0 0.0 0.0 0.00 0.67 0.01 69 1016.7
20260903191053 92 0 0.0 0.0 0.00 0.67 0.01 71 1016.7
20260903190552 92 0 0.0 0.0 0.00 0.67 0.01 71 1016.7
20260903190105 92 0 0.0 0.0 0.00 0.67 0.01 71 1016.8
20260903185548 92 0 0.0 0.0 0.00 0.67 0.01 75 1016.8
20260903185052 92 0 0.0 0.0 0.00 0.67 0.01 73 1016.8
20260903184604 92 0 0.0 0.0 0.00 0.67 0.01 72 1017.1
20260903184052 92 0 0.0 0.0 0.00 0.67 0.01 73 1017.2
20260903183552 92 0 0.0 0.0 0.00 0.67 0.01 75 1017.3
20260903183105 91 0 0.0 0.0 0.00 0.67 0.01 75 1017.3
20260903182552 91 0 0.0 0.0 0.00 0.67 0.01 74 1017.4
20260903182056 91 0 0.0 0.0 0.00 0.67 0.01 75 1017.4
20260903181604 91 0 0.0 0.0 0.00 0.67 0.01 74 1017.6
20260903181051 90 0 0.0 0.0 0.00 0.67 0.01 75 1017.6
20260903180556 90 0 0.0 0.0 0.00 0.67 0.01 75 1017.6
20260903180106 90 0 0.0 0.0 0.00 0.67 0.01 75 1017.6
20260903175550 90 0 0.0 0.0 0.00 0.67 0.01 79 1017.6
20260903175053 90 0 0.0 0.0 0.00 0.67 0.01 79 1017.7
20260903174609 89 0 0.0 0.0 0.00 0.67 0.01 76 1017.7
20260903174055 90 0 0.0 0.0 0.00 0.67 0.01 80 1017.8
20260903173552 89 0 0.0 0.0 0.00 0.67 0.01 79 1017.8
20260903173104 88 0 0.0 0.0 0.00 0.67 0.01 78 1017.8
20260903172551 89 0 0.0 0.0 0.00 0.67 0.01 77 1017.9
20260903172058 89 0 0.0 0.0 0.00 0.67 0.01 79 1017.9
20260903171612 89 0 0.0 0.0 0.00 0.67 0.01 79 1017.9
20260903171055 89 0 0.0 0.0 0.00 0.67 0.01 81 1018.0
20260903170552 88 0 0.0 0.0 0.00 0.67 0.01 81 1018.0
20260903170113 88 0 0.0 0.0 0.00 0.67 0.01 78 1018.2
20260903165550 87 0 0.0 0.0 0.00 0.67 0.01 79 1018.2
20260903165049 88 0 0.0 0.0 0.00 0.67 0.01 81 1018.2
20260903164605 88 0 0.0 0.0 0.00 0.67 0.01 81 1018.4
20260903164050 87 0 0.0 0.0 0.00 0.67 0.01 80 1018.3
20260903163550 87 0 0.0 0.0 0.00 0.67 0.01 81 1018.4
20260903163104 87 0 0.0 0.0 0.00 0.67 0.01 81 1018.4
20260903162554 87 0 0.0 0.0 0.00 0.67 0.01 82 1018.5
20260903162052 87 0 0.0 0.0 0.00 0.67 0.01 81 1018.5
20260903161606 87 0 0.0 0.0 0.00 0.67 0.01 83 1018.7
20260903161052 87 0 0.0 0.0 0.00 0.67 0.01 84 1018.7
20260903160550 86 0 0.0 0.0 0.00 0.67 0.01 82 1018.8
20260903160108 86 0 0.0 0.0 0.00 0.67 0.01 84 1018.7
20260903155551 86 0 0.0 0.0 0.00 0.67 0.01 83 1018.7
20260903155156 85 0 0.0 0.0 0.00 0.67 0.01 83 1018.7
20260903154607 85 0 0.0 0.0 0.00 0.67 0.01 84 1018.8
20260903154051 85 0 0.0 0.0 0.00 0.67 0.01 83 1018.7
20260903153608 85 0 0.0 0.0 0.00 0.67 0.01 85 1018.8
20260903153106 85 0 0.0 0.0 0.00 0.67 0.01 85 1018.8
20260903152552 85 0 0.0 0.0 0.00 0.67 0.01 84 1018.9
20260903152051 85 0 0.0 0.0 0.00 0.67 0.01 85 1018.9
20260903151613 85 0 0.0 0.0 0.00 0.67 0.01 83 1018.8
20260903151051 85 0 0.0 0.0 0.00 0.67 0.01 85 1018.8
20260903150548 84 0 0.0 0.0 0.00 0.67 0.01 85 1018.8
20260903150107 84 0 0.0 0.0 0.00 0.67 0.01 86 1018.8
20260903145550 84 0 0.0 0.0 0.00 0.67 0.01 87 1018.7
20260903145053 83 0 0.0 0.0 0.00 0.67 0.01 86 1018.8
20260903144602 83 0 0.0 0.0 0.00 0.67 0.01 86 1018.7
20260903144053 84 0 0.0 0.0 0.00 0.67 0.01 84 1018.8
20260903143553 84 0 0.0 0.0 0.00 0.67 0.01 85 1018.4
20260903143110 83 0 0.0 0.0 0.00 0.67 0.01 86 1018.3
20260903142552 83 0 0.0 0.0 0.00 0.67 0.01 87 1018.3
20260903142050 82 0 0.0 0.0 0.00 0.67 0.01 87 1018.2
20260903141609 82 0 0.0 0.0 0.00 0.67 0.01 88 1018.3
20260903141051 82 0 0.0 0.0 0.00 0.67 0.01 90 1018.2
20260903140551 81 0 0.0 0.0 0.00 0.67 0.01 90 1018.3
20260903140109 80 0 0.0 0.0 0.00 0.67 0.01 92 1018.1
20260903135551 80 0 0.0 0.0 0.00 0.67 0.01 93 1018.2
20260903135051 79 0 0.0 0.0 0.00 0.67 0.01 94 1018.3
20260903134612 79 0 0.0 0.0 0.00 0.67 0.01 95 1018.3
20260903134051 78 0 0.0 0.0 0.00 0.67 0.01 95 1018.2
20260903133548 78 0 0.0 0.0 0.00 0.67 0.01 95 1018.2
20260903133104 79 0 0.0 0.0 0.00 0.67 0.01 95 1018.2
20260903132550 78 0 0.0 0.0 0.00 0.67 0.01 95 1018.4
20260903132050 78 0 0.0 0.0 0.00 0.67 0.01 95 1018.5
20260903131608 77 0 0.0 0.0 0.00 0.67 0.01 95 1018.5
20260903131052 77 0 0.0 0.0 0.00 0.67 0.01 95 1018.6
20260903130550 76 0 0.0 0.0 0.00 0.67 0.01 95 1018.7
20260903130105 76 0 0.0 0.0 0.00 0.67 0.01 95 1018.8
20260903125549 76 0 0.0 0.0 0.00 0.67 0.01 95 1018.7
20260903125050 76 0 0.0 0.0 0.00 0.67 0.01 95 1018.7
20260903124608 76 0 0.0 0.0 0.00 0.67 0.01 95 1018.7
20260903124050 76 0 0.0 0.0 0.00 0.67 0.01 95 1018.7
20260903123550 75 0 0.0 0.0 0.00 0.67 0.01 95 1018.8
20260903123107 75 0 0.0 0.0 0.00 0.67 0.01 95 1019.0
20260903122553 75 0 0.0 0.0 0.00 0.67 0.01 95 1018.8
20260903122050 75 0 0.0 0.0 0.00 0.67 0.01 95 1018.8
20260903121606 75 0 0.0 0.0 0.00 0.67 0.01 95 1018.7
20260903121049 75 0 0.0 0.0 0.00 0.67 0.01 95 1018.8
20260903120553 75 0 0.0 0.0 0.00 0.67 0.01 95 1018.7
20260903120108 74 0 0.0 0.0 0.00 0.67 0.01 95 1018.6
20260903115550 74 0 0.0 0.0 0.00 0.67 0.01 95 1018.6
20260903115051 74 0 0.0 0.0 0.00 0.67 0.01 95 1018.7
20260903114605 74 0 0.0 0.0 0.00 0.67 0.01 95 1018.6
20260903114055 74 0 0.0 0.0 0.00 0.67 0.01 95 1018.5
20260903113550 74 0 0.0 0.0 0.00 0.67 0.01 95 1018.5
20260903113107 73 0 0.0 0.0 0.00 0.67 0.01 95 1018.3
20260903112550 73 0 0.0 0.0 0.00 0.67 0.01 95 1018.3
20260903112051 73 0 0.0 0.0 0.00 0.67 0.01 95 1018.3
20260903111605 73 0 0.0 0.0 0.00 0.67 0.01 95 1018.2
20260903111054 73 0 0.0 0.0 0.00 0.67 0.01 95 1018.2
20260903110549 73 0 0.0 0.0 0.00 0.67 0.01 95 1018.1
20260903105554 73 0 0.0 0.0 0.00 0.67 0.01 95 1018.2
20260903105050 73 0 0.0 0.0 0.00 0.67 0.01 95 1018.0
20260903104607 73 0 0.0 0.0 0.00 0.67 0.01 95 1018.0
20260903104049 73 0 0.0 0.0 0.00 0.67 0.01 95 1017.9
20260903103550 73 0 0.0 0.0 0.00 0.67 0.01 95 1017.7
20260903103107 73 0 0.0 0.0 0.00 0.67 0.01 95 1017.9
20260903102550 73 0 0.0 0.0 0.00 0.67 0.01 95 1017.9
20260903102052 73 0 0.0 0.0 0.00 0.67 0.01 95 1017.8
20260903101608 73 0 0.0 0.0 0.00 0.67 0.01 95 1017.9
20260903101049 73 0 0.0 0.0 0.00 0.67 0.01 95 1018.0
20260903100549 73 0 0.0 0.0 0.00 0.67 0.01 95 1017.9
20260903100105 73 0 0.0 0.0 0.01 0.67 0.01 95 1018.1
20260903095550 73 0 0.0 0.0 0.01 0.67 0.01 95 1018.0
20260903095050 73 0 0.0 0.0 0.01 0.67 0.01 95 1018.0
20260903094610 73 0 0.0 0.0 0.01 0.67 0.01 95 1018.0
20260903094050 73 0 0.0 0.0 0.01 0.67 0.01 95 1017.9
20260903093553 73 0 0.0 0.0 0.01 0.67 0.01 95 1018.0
20260903093107 73 0 0.0 0.0 0.01 0.67 0.01 95 1017.9
20260903092549 73 0 0.0 0.0 0.01 0.67 0.01 95 1017.9
20260903092050 73 0 0.0 0.0 0.01 0.67 0.01 95 1017.8
20260903091607 73 0 0.0 0.0 0.01 0.67 0.01 95 1017.7
20260903091049 73 0 0.0 0.0 0.01 0.67 0.01 95 1017.7
20260903090549 73 0 0.0 0.0 0.01 0.67 0.01 95 1017.7
20260903090111 73 0 0.0 0.0 0.00 0.66 0.00 95 1017.5
20260903085550 73 0 0.0 0.0 0.00 0.66 0.00 95 1017.5
20260903085050 73 0 0.0 0.0 0.00 0.66 0.00 95 1017.5
20260903084604 73 0 0.0 0.0 0.00 0.66 0.00 95 1017.4
20260903084053 73 0 0.0 0.0 0.00 0.66 0.00 95 1017.4
20260903083550 73 0 0.0 0.0 0.00 0.66 0.00 95 1017.3
20260903083109 73 0 0.0 0.0 0.00 0.66 0.00 95 1017.4
20260903082549 73 0 0.0 0.0 0.00 0.66 0.00 95 1017.5
20260903082049 73 0 0.0 0.0 0.00 0.66 0.00 95 1017.4
20260903081604 73 0 0.0 0.0 0.00 0.66 0.00 95 1017.5
20260903081049 73 0 0.0 0.0 0.00 0.66 0.00 95 1017.6
20260903080549 73 0 0.0 0.0 0.00 0.66 0.00 95 1017.5
20260903075551 73 0 0.0 0.0 0.00 0.66 0.00 95 1017.6
20260903075049 73 0 0.0 0.0 0.00 0.66 0.00 95 1017.8
20260903074603 73 0 0.0 0.0 0.00 0.66 0.00 95 1017.7
20260903074049 73 0 0.0 0.0 0.00 0.66 0.00 95 1017.6
20260903073551 73 0 0.0 0.0 0.00 0.66 0.00 95 1017.7
20260903073106 73 0 0.0 0.0 0.00 0.66 0.00 95 1017.6
20260903072549 73 0 0.0 0.0 0.00 0.66 0.00 95 1017.7
20260903072049 74 0 0.0 0.0 0.00 0.66 0.00 95 1017.8
20260903071607 74 0 0.0 0.0 0.00 0.66 0.00 95 1017.7
20260903071054 74 0 0.0 0.0 0.00 0.66 0.00 95 1017.7
20260903070551 74 0 0.0 0.0 0.00 0.66 0.00 95 1017.8
20260903070108 74 0 0.0 0.0 0.00 0.66 0.00 95 1017.8
20260903065551 74 0 0.0 0.0 0.00 0.66 0.00 95 1017.8
20260903065050 74 0 0.0 0.0 0.00 0.66 0.00 95 1017.8
20260903064556 74 0 0.0 0.0 0.00 0.66 0.00 95 1017.8
20260903064051 74 0 0.0 0.0 0.00 0.66 0.00 95 1017.8
20260903063552 74 0 0.0 0.0 0.00 0.66 0.00 95 1017.7
20260903063106 74 0 0.0 0.0 0.00 0.66 0.00 95 1018.0
20260903062552 74 0 0.0 0.0 0.00 0.66 0.00 95 1018.0
20260903062054 74 0 0.0 0.0 0.00 0.66 0.00 95 1018.0
20260903061623 74 0 0.0 0.0 0.00 0.66 0.00 95 1018.0
20260903061052 74 0 0.0 0.0 0.00 0.66 0.00 95 1018.0
20260903060552 74 0 0.0 0.0 0.00 0.66 0.00 95 1018.0
20260903060103 74 0 0.0 0.0 0.00 0.66 0.00 95 1018.1
20260903055551 74 0 0.0 0.0 0.00 0.66 0.00 95 1018.2
20260903055051 74 0 0.0 0.0 0.00 0.66 0.00 95 1018.1
20260903054604 74 0 0.0 0.0 0.00 0.66 0.00 95 1018.2
20260903054051 74 0 0.0 0.0 0.00 0.66 0.00 95 1018.4
20260903053553 74 0 0.0 0.0 0.00 0.66 0.00 95 1018.6
20260903053108 74 0 0.0 0.0 0.00 0.66 0.00 95 1018.6
20260903052550 74 0 0.0 0.0 0.00 0.66 0.00 95 1018.8
20260903052052 74 0 0.0 0.0 0.00 0.66 0.00 95 1018.9
20260903051610 74 0 0.0 0.0 0.00 0.66 0.00 95 1018.8
20260903051055 74 0 0.0 0.0 0.00 0.66 0.00 95 1018.9
20260903050551 74 0 0.0 0.0 0.00 0.66 0.00 95 1018.8
20260903050115 74 0 0.0 0.0 0.00 0.66 0.00 95 1018.7
20260903045551 74 0 0.0 0.0 0.00 0.66 0.00 94 1018.6
20260903045050 74 0 0.0 0.0 0.00 0.66 0.00 95 1018.5
20260903044605 74 0 0.0 0.0 0.00 0.66 0.00 95 1018.5
20260903044051 74 0 0.0 0.0 0.00 0.66 0.00 94 1018.5
20260903043551 74 0 0.0 0.0 0.00 0.66 0.00 94 1018.5
20260903043103 74 0 0.0 0.0 0.00 0.66 0.00 94 1018.5
20260903042553 74 0 0.0 0.0 0.00 0.66 0.00 94 1018.4
20260903042052 74 0 0.0 0.0 0.00 0.66 0.00 95 1018.3
20260903041606 74 0 0.0 0.0 0.00 0.66 0.00 94 1018.0
20260903041050 74 0 0.0 0.0 0.00 0.66 0.00 94 1017.9
20260903040551 75 0 0.0 0.0 0.00 0.66 0.00 95 1018.0
20260903040109 75 0 0.0 0.0 0.00 0.66 0.00 95 1017.9
20260903035550 75 0 0.0 0.0 0.00 0.66 0.66 95 1017.9
20260903035050 75 0 0.0 0.0 0.00 0.66 0.66 94 1017.9
20260903034607 75 0 0.0 0.0 0.00 0.66 0.66 94 1017.9
20260903034052 75 0 0.0 0.0 0.00 0.66 0.66 94 1018.0
20260903033551 75 0 0.0 0.0 0.00 0.66 0.66 94 1018.0
20260903033112 75 0 0.0 0.0 0.00 0.66 0.66 94 1018.0